Weather History for Boonville, MO

Change the Weather History Date:

Friday, June 21, 2013

  Actual Average Record
Temperature  
Mean Temperature 82 °F -  
Max Temperature 93 °F 85 °F 100 °F (1988)
Min Temperature 72 °F 64 °F 49 °F (1992)
Cooling Degree Days 17    
Growing Degree Days 32 (Base 50)    
Moisture  
Dew Point 70 °F    
Average Humidity 66    
Maximum Humidity 85    
Minimum Humidity 47    
Precipitation  
Precipitation 0.00 in - - ()
Sea Level Pressure  
Sea Level Pressure 30.01 in    
Wind  
Wind Speed 9 mph (SSE)    
Max Wind Speed 16 mph    
Max Gust Speed 23 mph    
Visibility 10 miles    
Events      
Averages and records for this station are not official NWS values.
T = Trace of Precipitation, MM = Missing Value Source: NWS Daily Summary

Daily Weather History Graph

Daily Weather History Graph

Search for Another Location

Airport:

Trip Planner

Search our weather history database for the weather conditions in past years. The results will help you decide how hot, cold, wet, or windy it might be!

Date:

Astronomy

Jun. 21, 2013 Rise Set
Actual Time 5:45 AM CDT 8:39 PM CDT
Civil Twilight 5:13 AM CDT 9:11 PM CDT
Nautical Twilight 4:32 AM CDT 9:52 PM CDT
Astronomical Twilight 3:46 AM CDT 10:38 PM CDT
Moon 6:51 PM CDT (6/21) 4:00 AM CDT (6/21)
Length of Visible Light 15h 58m
Length of Day
14h 54m
Waxing Gibbous, 95% of the Moon is Illuminated
Jun 21
Waxing Gibbous
Jun 23
Full
Jun 29
Last Quarter
Jul 8
New
Jul 15
First Quarter

Hourly Weather History & Observations

Time (CDT) Temp. Heat Index Dew Point Humidity Pressure Visibility Wind Dir Wind Speed Gust Speed Precip Events Conditions
12:15 AM 76.5 °F - 67.3 °F 73% 30.03 in 10.0 mi ESE 6.9 mph - N/A   Scattered Clouds
12:35 AM 76.1 °F - 67.3 °F 74% 30.04 in 10.0 mi ESE 6.9 mph - N/A   Clear
12:55 AM 76.3 °F - 66.7 °F 72% 30.04 in 10.0 mi SE 8.1 mph - N/A   Clear
1:15 AM 75.9 °F - 66.6 °F 73% 30.05 in 10.0 mi SE 6.9 mph - N/A   Clear
1:35 AM 75.6 °F - 66.7 °F 74% 30.04 in 10.0 mi SE 8.1 mph - N/A   Clear
1:55 AM 75.4 °F - 66.6 °F 74% 30.04 in 10.0 mi SSE 6.9 mph - N/A   Clear
2:15 AM 75.0 °F - 66.7 °F 75% 30.03 in 10.0 mi SSE 8.1 mph - N/A   Clear
2:35 AM 74.8 °F - 66.7 °F 76% 30.02 in 10.0 mi SSE 9.2 mph - N/A   Clear
2:55 AM 74.7 °F - 66.7 °F 76% 30.02 in 10.0 mi SE 8.1 mph - N/A   Clear
3:15 AM 74.3 °F - 67.1 °F 78% 30.02 in 10.0 mi SE 5.8 mph - N/A   Clear
3:35 AM 74.1 °F - 66.9 °F 78% 30.02 in 10.0 mi South 6.9 mph - N/A   Clear
3:55 AM 74.1 °F - 67.1 °F 79% 30.02 in 10.0 mi South 3.5 mph - N/A   Clear
4:15 AM 73.9 °F - 67.1 °F 79% 30.02 in 10.0 mi SSE 4.6 mph - N/A   Clear
4:35 AM 73.0 °F - 67.1 °F 82% 30.03 in 10.0 mi SE 5.8 mph - N/A   Clear
4:55 AM 72.5 °F - 67.3 °F 84% 30.03 in 10.0 mi SSE 5.8 mph - N/A   Clear
5:15 AM 72.5 °F - 67.5 °F 84% 30.02 in 10.0 mi SSE 6.9 mph - N/A   Clear
5:35 AM 72.5 °F - 67.6 °F 85% 30.02 in 10.0 mi SSE 5.8 mph - N/A   Clear
5:55 AM 72.9 °F - 67.6 °F 84% 30.02 in 10.0 mi SSE 6.9 mph - N/A   Clear
6:15 AM 73.6 °F - 67.5 °F 81% 30.03 in 10.0 mi South 6.9 mph - N/A   Clear
6:35 AM 74.1 °F - 67.6 °F 80% 30.03 in 10.0 mi SSE 5.8 mph - N/A   Clear
6:55 AM 74.7 °F - 68.0 °F 80% 30.04 in 10.0 mi SSE 6.9 mph - N/A   Clear
7:15 AM 75.0 °F - 68.2 °F 79% 30.05 in 10.0 mi South 5.8 mph - N/A   Clear
7:35 AM 75.0 °F - 68.4 °F 80% 30.05 in 10.0 mi SSE 6.9 mph - N/A   Clear
7:55 AM 75.2 °F - 68.4 °F 79% 30.05 in 10.0 mi SE 6.9 mph - N/A   Clear
8:15 AM 75.9 °F - 68.7 °F 78% 30.05 in 10.0 mi SE 6.9 mph - N/A   Clear
8:35 AM 76.3 °F - 68.9 °F 78% 30.05 in 10.0 mi SSE 8.1 mph - N/A   Clear
8:55 AM 77.9 °F - 69.4 °F 75% 30.05 in 10.0 mi SSE 11.5 mph - N/A   Clear
9:15 AM 79.9 °F - 69.6 °F 71% 30.05 in 10.0 mi South 10.4 mph - N/A   Clear
9:35 AM 81.1 °F 84.5 °F 69.8 °F 68% 30.04 in 10.0 mi South 11.5 mph - N/A   Clear
9:55 AM 82.0 °F 85.7 °F 69.8 °F 66% 30.03 in 10.0 mi South 13.8 mph - N/A   Clear
10:15 AM 83.7 °F 88.0 °F 70.3 °F 64% 30.04 in 10.0 mi South 10.4 mph - N/A   Clear
10:35 AM 85.5 °F 90.1 °F 70.3 °F 60% 30.03 in 10.0 mi South 10.4 mph 18.4 mph N/A   Clear
11:15 AM 87.3 °F 92.0 °F 69.6 °F 56% 30.03 in 10.0 mi SSW 9.2 mph 18.4 mph N/A   Clear
11:35 AM 88.3 °F 93.2 °F 69.8 °F 54% 30.04 in 10.0 mi SSW 8.1 mph 19.6 mph N/A   Clear
11:55 AM 89.1 °F 94.1 °F 70.2 °F 53% 30.04 in 10.0 mi SSW 10.4 mph - N/A   Clear
12:15 PM 89.8 °F 95.1 °F 70.0 °F 52% 30.03 in 10.0 mi South 10.4 mph 16.1 mph N/A   Clear
12:35 PM 90.3 °F 95.2 °F 69.6 °F 50% 30.02 in 10.0 mi SSW 11.5 mph 17.3 mph N/A   Clear
12:55 PM 90.9 °F 96.2 °F 70.0 °F 50% 30.02 in 10.0 mi South 16.1 mph 19.6 mph N/A   Clear
1:15 PM 90.9 °F 94.8 °F 68.4 °F 47% 30.02 in 10.0 mi SSW 10.4 mph 16.1 mph N/A   Clear
1:35 PM 91.4 °F 96.8 °F 69.6 °F 49% 30.02 in 10.0 mi South 9.2 mph 16.1 mph N/A   Clear
1:55 PM 91.8 °F 97.0 °F 69.4 °F 48% 30.01 in 10.0 mi South 12.7 mph 18.4 mph N/A   Clear
2:15 PM 91.9 °F 97.4 °F 69.8 °F 48% 30.00 in 10.0 mi South 12.7 mph 18.4 mph N/A   Clear
2:35 PM 91.9 °F 97.9 °F 70.3 °F 49% 30.00 in 10.0 mi South 12.7 mph 18.4 mph N/A   Clear
2:55 PM 92.3 °F 98.6 °F 70.3 °F 49% 30.00 in 10.0 mi South 9.2 mph 19.6 mph N/A   Clear
3:15 PM 92.5 °F 98.4 °F 70.2 °F 48% 30.00 in 10.0 mi South 13.8 mph 20.7 mph N/A   Scattered Clouds
3:35 PM 92.5 °F 99.6 °F 71.2 °F 50% 30.00 in 10.0 mi South 15.0 mph 20.7 mph N/A   Scattered Clouds
3:55 PM 92.3 °F 99.2 °F 71.4 °F 50% 29.99 in 10.0 mi South 9.2 mph 19.6 mph N/A   Scattered Clouds
4:15 PM 91.9 °F 99.0 °F 71.2 °F 51% 29.99 in 10.0 mi South 12.7 mph 17.3 mph N/A   Clear
4:35 PM 91.8 °F 98.6 °F 71.4 °F 51% 29.99 in 10.0 mi South 13.8 mph 19.6 mph N/A   Scattered Clouds
4:55 PM 91.9 °F 99.0 °F 71.2 °F 51% 29.99 in 10.0 mi SSE 16.1 mph 23.0 mph N/A   Scattered Clouds
5:15 PM 91.6 °F 98.2 °F 71.1 °F 51% 29.97 in 10.0 mi South 16.1 mph 21.9 mph N/A   Clear
5:35 PM 91.4 °F 97.8 °F 71.1 °F 51% 29.96 in 10.0 mi South 15.0 mph 19.6 mph N/A   Clear
5:55 PM 91.2 °F 97.0 °F 70.0 °F 50% 29.96 in 10.0 mi South 15.0 mph 18.4 mph N/A   Clear
6:15 PM 90.7 °F 96.4 °F 70.2 °F 51% 29.96 in 10.0 mi South 11.5 mph 18.4 mph N/A   Clear
6:35 PM 90.1 °F 95.8 °F 70.3 °F 52% 29.96 in 10.0 mi South 10.4 mph 17.3 mph N/A   Clear
6:55 PM 90.0 °F 95.9 °F 70.7 °F 53% 29.98 in 10.0 mi SSE 9.2 mph - N/A   Clear
7:15 PM 89.2 °F 95.4 °F 71.1 °F 55% 29.97 in 10.0 mi SSE 10.4 mph - N/A   Clear
7:35 PM 88.2 °F 94.1 °F 71.1 °F 57% 29.96 in 10.0 mi SSE 8.1 mph - N/A   Clear
7:55 PM 87.3 °F 93.2 °F 71.4 °F 59% 29.97 in 10.0 mi SSE 9.2 mph - N/A   Clear
8:15 PM 86.4 °F 92.6 °F 72.0 °F 62% 29.96 in 10.0 mi SSE 9.2 mph - N/A   Clear
8:35 PM 85.6 °F 91.5 °F 72.0 °F 63% 29.96 in 10.0 mi SSE 11.5 mph - N/A   Mostly Cloudy
8:55 PM 84.7 °F 90.7 °F 72.1 °F 66% 29.96 in 10.0 mi SSE 6.9 mph - N/A   Scattered Clouds
9:15 PM 84.0 °F 89.9 °F 72.5 °F 68% 29.96 in 10.0 mi South 10.4 mph - N/A   Scattered Clouds
9:35 PM 83.7 °F 89.4 °F 72.5 °F 69% 29.96 in 10.0 mi South 8.1 mph - N/A   Scattered Clouds
9:55 PM 82.9 °F 88.5 °F 72.5 °F 71% 29.98 in 7.0 mi SSE 9.2 mph - N/A   Clear
10:15 PM 82.8 °F 88.2 °F 72.5 °F 71% 29.99 in 10.0 mi SSE 11.5 mph - N/A   Clear
10:35 PM 82.6 °F 87.8 °F 72.3 °F 71% 29.99 in 10.0 mi SSE 11.5 mph 17.3 mph N/A   Clear
10:55 PM 82.4 °F 87.4 °F 72.0 °F 71% 30.00 in 10.0 mi SSE 10.4 mph - N/A   Clear
11:15 PM 82.0 °F 86.7 °F 71.6 °F 71% 30.00 in 10.0 mi SSE 10.4 mph - N/A   Clear
11:35 PM 81.7 °F 86.0 °F 71.6 °F 71% 30.00 in 10.0 mi SSE 9.2 mph - N/A   Clear
11:55 PM 81.1 °F 85.4 °F 71.6 °F 73% 30.00 in 10.0 mi SSE 10.4 mph - N/A   Clear